Starlink 30416

operational
NORAD ID: 57847 Int'l Des: 2023-141 Owner: SPXS Country: US Constellation: starlink
LEOCIRCULAR

Starlink 30416について

説明を読み込み中...

リアルタイム位置

3D地球を読み込み中...

次回通過

高度履歴

Altitude vs Time

uPlot chart will show altitude changes over time

軌道要素

1 57847U 23141H 26034.44489579 .00000290 00000-0 21919-4 0 9994
2 57847 53.1597 83.2425 0001227 120.0694 240.0428 15.30188501135080
Epoch: Feb 3, 2026 • Age: 25 hours

現在のステータス

高度 491.3 km
速度 7.62 km/s
衛星直下点 -45.91°S, 5.38°E
打ち上げ日 Sep 12, 2023
運用期間 2.3 years
タイプ internet

技術仕様

分類 Payload
質量 730.00 kg
乾燥質量 700.00 kg
総質量 730.00 kg
長さ 0.30 m
直径 4.10 m
スパン 29.00 m
形状 Box + pan
製造者 SPXS
バスタイプ Starlink V2M
フェーズステータス In Orbit
所有者/国 SPXS/US

大規模コンステレーション

Loading constellations...